Change the Weather History Date:

Sunday, April 13, 2014

  Actual Average (KUIN) Record (KUIN)
Temperature  
Mean Temperature 64 °F 52 °F  
Max Temperature 71 °F 63 °F 89 °F (1941)
Min Temperature 58 °F 42 °F 19 °F (1950)
Degree Days  
Heating Degree Days 1 13  
Month to date heating degree days 195  
Since 1 July heating degree days 5255  
Cooling Degree Days 0 0  
Month to date cooling degree days 0  
Year to date cooling degree days 2  
Growing Degree Days 14 (Base 50)    
Moisture  
Dew Point 57 °F    
Average Humidity 73    
Maximum Humidity 88    
Minimum Humidity 58    
Precipitation  
Precipitation 0.20 in 0.13 in 2.05 in (1945)
Month to date precipitation 1.49  
Year to date precipitation 7.35  
Sea Level Pressure  
Sea Level Pressure 29.63 in    
Wind  
Wind Speed 14 mph (South)    
Max Wind Speed 25 mph    
Max Gust Speed 34 mph    
Visibility 10 miles    
Events Rain , Thunderstorm    
T = Trace of Precipitation, MM = Missing Value Source: NWS Daily Summary

Daily Weather History Graph

Daily Weather History Graph

Search for Another Location

Airport or City:

Trip Planner

Search our weather history database for the weather conditions in past years. The results will help you decide how hot, cold, wet, or windy it might be!

Date:

Astronomy

Apr. 13, 2014 Rise Set
Actual Time 6:28 AM CDT 7:39 PM CDT
Civil Twilight 6:00 AM CDT 8:07 PM CDT
Nautical Twilight 5:27 AM CDT 8:40 PM CDT
Astronomical Twilight 4:53 AM CDT 9:15 PM CDT
Moon 6:17 PM CDT (4/13) 5:27 AM CDT (4/13)
Length of Visible Light 14h 06m
Length of Day
13h 10m
Waxing Gibbous, 97% of the Moon is Illuminated
Apr 13
Waxing Gibbous
Apr 15
Full
Apr 22
Last Quarter
Apr 29
New
May 6
First Quarter

Hourly Weather History & Observations

Time (CDT) Temp. Dew Point Humidity Pressure Visibility Wind Dir Wind Speed Gust Speed Precip Events Conditions
12:15 AM 68.7 °F 53.2 °F 58% 29.68 in 10.0 mi SSW 15.0 mph 19.6 mph N/A   Clear
12:35 AM 68.4 °F 53.2 °F 58% 29.70 in 10.0 mi South 13.8 mph - N/A   Clear
12:55 AM 68.4 °F 53.4 °F 59% 29.73 in 10.0 mi SW 10.4 mph - N/A   Clear
1:15 AM 69.1 °F 53.6 °F 58% 29.74 in 10.0 mi SSW 12.7 mph - N/A   Clear
1:35 AM 69.1 °F 53.8 °F 58% 29.74 in 10.0 mi SSW 12.7 mph 17.3 mph N/A   Clear
1:55 AM 68.9 °F 54.1 °F 59% 29.74 in 10.0 mi SSW 11.5 mph 18.4 mph N/A   Clear
2:15 AM 68.5 °F 54.5 °F 61% 29.73 in 10.0 mi SSW 11.5 mph 17.3 mph N/A   Clear
2:35 AM 68.0 °F 54.7 °F 62% 29.72 in 10.0 mi South 12.7 mph 17.3 mph N/A   Clear
2:55 AM 67.6 °F 54.9 °F 64% 29.71 in 10.0 mi SSW 12.7 mph 16.1 mph N/A   Clear
3:15 AM 67.1 °F 55.0 °F 65% 29.71 in 10.0 mi SSW 12.7 mph - N/A   Clear
3:35 AM 66.2 °F 55.4 °F 68% 29.71 in 10.0 mi South 10.4 mph - N/A   Clear
3:55 AM 66.2 °F 55.2 °F 68% 29.71 in 10.0 mi South 12.7 mph - N/A   Clear
4:15 AM 66.2 °F 55.0 °F 67% 29.70 in 10.0 mi South 12.7 mph - N/A   Clear
4:35 AM 66.2 °F 55.4 °F 68% 29.71 in 10.0 mi South 12.7 mph 18.4 mph N/A   Clear
4:55 AM 66.2 °F 55.4 °F 68% 29.71 in 10.0 mi South 12.7 mph 17.3 mph N/A   Clear
5:15 AM 65.5 °F 55.4 °F 70% 29.70 in 10.0 mi South 12.7 mph - N/A   Clear
5:35 AM 65.7 °F 55.4 °F 69% 29.68 in 10.0 mi South 18.4 mph 25.3 mph N/A   Clear
5:55 AM 65.8 °F 55.4 °F 69% 29.69 in 10.0 mi South 13.8 mph 19.6 mph N/A   Clear
6:15 AM 66.2 °F 55.4 °F 68% 29.70 in 10.0 mi South 13.8 mph 18.4 mph N/A   Clear
6:35 AM 66.4 °F 55.4 °F 68% 29.70 in 10.0 mi South 12.7 mph 18.4 mph N/A   Clear
6:55 AM 66.4 °F 55.6 °F 68% 29.70 in 10.0 mi South 10.4 mph 19.6 mph N/A   Clear
7:15 AM 66.2 °F 55.6 °F 69% 29.70 in 10.0 mi South 12.7 mph 21.9 mph N/A   Clear
7:35 AM 66.2 °F 55.8 °F 69% 29.70 in 10.0 mi South 12.7 mph - N/A   Clear
7:55 AM 66.6 °F 55.8 °F 68% 29.73 in 10.0 mi South 13.8 mph 24.2 mph N/A   Clear
8:15 AM 65.5 °F 56.3 °F 72% 29.72 in 10.0 mi South 15.0 mph 18.4 mph N/A Rain Light Rain
8:35 AM 63.5 °F 57.2 °F 80% 29.71 in 7.0 mi South 12.7 mph - 0.02 in Rain Rain
8:55 AM 63.0 °F 57.6 °F 82% 29.71 in 10.0 mi SSE 13.8 mph - 0.03 in Rain Light Rain
9:15 AM 63.7 °F 58.5 °F 83% 29.71 in 10.0 mi South 11.5 mph - N/A   Scattered Clouds
9:35 AM 64.4 °F 59.0 °F 83% 29.72 in 10.0 mi South 12.7 mph - N/A   Scattered Clouds
9:55 AM 64.6 °F 59.0 °F 82% 29.73 in 10.0 mi South 15.0 mph 20.7 mph N/A   Clear
10:15 AM 64.4 °F 59.0 °F 83% 29.72 in 10.0 mi SE 10.4 mph - N/A   Scattered Clouds
10:35 AM 64.4 °F 58.6 °F 82% 29.73 in 10.0 mi South 8.1 mph - N/A Rain Light Rain
10:55 AM 64.8 °F 59.4 °F 83% 29.72 in 10.0 mi SSE 13.8 mph - N/A Rain Light Rain
11:15 AM 64.4 °F 59.5 °F 84% 29.73 in 10.0 mi SSE 15.0 mph 19.6 mph N/A Rain Light Rain
11:35 AM 63.9 °F 59.4 °F 85% 29.72 in 10.0 mi South 12.7 mph 17.3 mph 0.01 in Rain Rain
11:55 AM 64.4 °F 59.7 °F 85% 29.70 in 10.0 mi South 11.5 mph - 0.01 in   Light Drizzle
12:15 PM 66.4 °F 60.1 °F 80% 29.69 in 10.0 mi South 11.5 mph 17.3 mph N/A   Overcast
12:35 PM 69.3 °F 60.3 °F 73% 29.68 in 10.0 mi SSE 17.3 mph - N/A   Mostly Cloudy
12:55 PM 70.2 °F 60.1 °F 70% 29.67 in 10.0 mi South 16.1 mph 20.7 mph N/A   Scattered Clouds
1:15 PM 70.7 °F 60.3 °F 69% 29.67 in 10.0 mi South 19.6 mph 26.5 mph N/A   Clear
1:35 PM 70.9 °F 60.3 °F 69% 29.66 in 10.0 mi South 17.3 mph 25.3 mph N/A   Scattered Clouds
1:55 PM 69.8 °F 59.7 °F 70% 29.65 in 10.0 mi South 17.3 mph 24.2 mph N/A   Mostly Cloudy
2:15 PM 70.3 °F 59.4 °F 68% 29.64 in 10.0 mi South 12.7 mph - N/A   Mostly Cloudy
2:35 PM 70.9 °F 59.0 °F 66% 29.64 in 10.0 mi South 18.4 mph 24.2 mph N/A   Mostly Cloudy
2:55 PM 69.4 °F 59.5 °F 71% 29.64 in 7.0 mi South 16.1 mph 27.6 mph N/A Rain Rain
3:15 PM 66.6 °F 60.6 °F 81% 29.62 in 5.0 mi South 15.0 mph 26.5 mph 0.04 in Rain Heavy Rain
3:35 PM 66.2 °F 61.0 °F 83% 29.59 in 10.0 mi South 12.7 mph - 0.04 in Rain Light Rain
3:55 PM 68.7 °F 62.2 °F 80% 29.57 in 10.0 mi South 17.3 mph - 0.04 in   Clear
4:15 PM 68.0 °F 60.4 °F 77% 29.55 in 10.0 mi South 18.4 mph 23.0 mph N/A   Mostly Cloudy
4:35 PM 69.3 °F 61.0 °F 75% 29.55 in 10.0 mi South 16.1 mph 23.0 mph N/A   Mostly Cloudy
4:55 PM 68.7 °F 60.4 °F 75% 29.55 in 10.0 mi South 15.0 mph 23.0 mph N/A Rain Light Rain
5:15 PM 68.0 °F 60.3 °F 76% 29.55 in 7.0 mi South 16.1 mph 21.9 mph 0.01 in Rain Light Rain
5:35 PM 67.1 °F 60.4 °F 79% 29.55 in 10.0 mi South 11.5 mph - 0.02 in Rain Light Rain
5:55 PM 66.2 °F 60.6 °F 82% 29.52 in 10.0 mi SE 11.5 mph - 0.03 in Rain Light Rain
6:15 PM 66.4 °F 59.9 °F 80% 29.52 in 5.0 mi SE 10.4 mph - 0.06 in Rain , Thunderstorm Thunderstorms and Rain
6:35 PM 67.8 °F 59.4 °F 74% 29.51 in 10.0 mi South 10.4 mph - 0.06 in   Mostly Cloudy
6:55 PM 69.1 °F 56.8 °F 65% 29.50 in 10.0 mi South 25.3 mph 33.4 mph 0.06 in Rain Light Rain
7:15 PM 68.0 °F 56.8 °F 67% 29.50 in 10.0 mi South 15.0 mph 23.0 mph N/A   Scattered Clouds
7:35 PM 68.9 °F 56.3 °F 64% 29.50 in 10.0 mi South 24.2 mph 33.4 mph N/A   Scattered Clouds
7:55 PM 68.9 °F 56.5 °F 65% 29.48 in 10.0 mi South 21.9 mph 34.5 mph N/A   Scattered Clouds
8:15 PM 68.2 °F 56.8 °F 67% 29.46 in 10.0 mi South 25.3 mph 31.1 mph N/A   Scattered Clouds
8:35 PM 67.5 °F 57.6 °F 70% 29.46 in 10.0 mi South 19.6 mph 29.9 mph N/A   Clear
8:55 PM 67.1 °F 57.6 °F 71% 29.48 in 10.0 mi SSW 21.9 mph 29.9 mph N/A   Scattered Clouds
9:15 PM 67.1 °F 57.6 °F 71% 29.49 in 10.0 mi SSW 19.6 mph 25.3 mph N/A   Mostly Cloudy
9:35 PM 61.0 °F 54.7 °F 80% 29.51 in 5.0 mi WSW 11.5 mph 25.3 mph 0.02 in Rain Rain
9:55 PM 59.4 °F 55.0 °F 86% 29.51 in 10.0 mi WSW 11.5 mph - 0.03 in   Light Drizzle
10:15 PM 58.6 °F 54.9 °F 87% 29.50 in 10.0 mi SSW 9.2 mph - N/A   Mostly Cloudy
10:35 PM 58.3 °F 54.5 °F 87% 29.50 in 10.0 mi SSW 12.7 mph - N/A   Scattered Clouds
10:55 PM 58.3 °F 54.5 °F 87% 29.49 in 10.0 mi SSW 16.1 mph 23.0 mph N/A   Clear
11:15 PM 58.1 °F 54.0 °F 86% 29.44 in 10.0 mi South 8.1 mph - N/A   Clear
11:35 PM 58.1 °F 54.1 °F 87% 29.50 in 10.0 mi SW 9.2 mph - N/A   Clear
11:55 PM 58.1 °F 54.5 °F 88% 29.50 in 10.0 mi WSW 9.2 mph - N/A   Scattered Clouds